Year,Month,Day,Hour,Minute,Value (Times are PST for temperature in C)
2018,08,01,00,00,17.60
2018,08,01,00,01,17.50
2018,08,01,00,02,17.50
2018,08,01,00,03,17.50
2018,08,01,00,04,17.40
2018,08,01,00,05,17.40
2018,08,01,00,06,17.40
2018,08,01,00,07,17.40
2018,08,01,00,08,17.40
2018,08,01,00,09,17.30
2018,08,01,00,10,17.30
2018,08,01,00,11,17.30
2018,08,01,00,12,17.30
2018,08,01,00,13,17.20
2018,08,01,00,14,17.20
2018,08,01,00,15,17.20
2018,08,01,00,16,17.10
2018,08,01,00,17,17.10
2018,08,01,00,18,17.10
2018,08,01,00,19,17.00
2018,08,01,00,20,17.00
2018,08,01,00,21,17.00
2018,08,01,00,22,16.90
2018,08,01,00,23,16.90
2018,08,01,00,24,16.90
2018,08,01,00,25,16.80
2018,08,01,00,26,16.80
2018,08,01,00,27,16.80
2018,08,01,00,28,16.80
2018,08,01,00,29,16.80
2018,08,01,00,30,16.70
2018,08,01,00,31,16.70
2018,08,01,00,32,16.70
2018,08,01,00,33,16.70
2018,08,01,00,34,16.60
2018,08,01,00,35,16.60
2018,08,01,00,36,16.50
2018,08,01,00,37,16.50
2018,08,01,00,38,16.50
2018,08,01,00,39,16.40
2018,08,01,00,40,16.40
2018,08,01,00,41,16.30
2018,08,01,00,42,16.30
2018,08,01,00,43,16.30
2018,08,01,00,44,16.30
2018,08,01,00,45,16.30
2018,08,01,00,46,16.20
2018,08,01,00,47,16.20
2018,08,01,00,48,16.20
2018,08,01,00,49,16.10
2018,08,01,00,50,16.10
2018,08,01,00,51,16.10
2018,08,01,00,52,16.10
2018,08,01,00,53,16.10
2018,08,01,00,54,16.00
2018,08,01,00,55,16.00
2018,08,01,00,56,15.90
2018,08,01,00,57,15.90
2018,08,01,00,58,15.90
2018,08,01,00,59,15.90
2018,08,01,01,00,15.80
2018,08,01,01,01,15.80
2018,08,01,01,02,15.80
2018,08,01,01,03,15.80
2018,08,01,01,04,15.70
2018,08,01,01,05,15.70
2018,08,01,01,06,15.70
2018,08,01,01,07,15.60
2018,08,01,01,08,15.60
2018,08,01,01,09,15.60
2018,08,01,01,10,15.60
2018,08,01,01,11,15.50
2018,08,01,01,12,15.50
2018,08,01,01,13,15.50
2018,08,01,01,14,15.40
2018,08,01,01,15,15.40
2018,08,01,01,16,15.40
2018,08,01,01,17,15.30
2018,08,01,01,18,15.30
2018,08,01,01,19,15.30
2018,08,01,01,20,15.30
2018,08,01,01,21,15.30
2018,08,01,01,22,15.20
2018,08,01,01,23,15.20
2018,08,01,01,24,15.20
2018,08,01,01,25,15.20
2018,08,01,01,26,15.20
2018,08,01,01,27,15.20
2018,08,01,01,28,15.20
2018,08,01,01,29,15.10
2018,08,01,01,30,15.10
2018,08,01,01,31,15.10
2018,08,01,01,32,15.10
2018,08,01,01,33,15.00
2018,08,01,01,34,15.00
2018,08,01,01,35,15.00
2018,08,01,01,36,14.90
2018,08,01,01,37,14.90
2018,08,01,01,38,14.90
2018,08,01,01,39,14.90
2018,08,01,01,40,14.90
2018,08,01,01,41,14.90
2018,08,01,01,42,14.80
2018,08,01,01,43,14.80
2018,08,01,01,44,14.80
2018,08,01,01,45,14.80
2018,08,01,01,46,14.80
2018,08,01,01,47,14.80
2018,08,01,01,48,14.70
2018,08,01,01,49,14.70
2018,08,01,01,50,14.70
2018,08,01,01,51,14.70
2018,08,01,01,52,14.70
2018,08,01,01,53,14.70
2018,08,01,01,54,14.60
2018,08,01,01,55,14.60
2018,08,01,01,56,14.60
2018,08,01,01,57,14.60
2018,08,01,01,58,14.60
2018,08,01,01,59,14.60
2018,08,01,02,00,14.60
2018,08,01,02,01,14.60
2018,08,01,02,02,14.60
2018,08,01,02,03,14.60
2018,08,01,02,04,14.60
2018,08,01,02,05,14.60
2018,08,01,02,06,14.60
2018,08,01,02,07,14.60
2018,08,01,02,08,14.60
2018,08,01,02,09,14.50
2018,08,01,02,10,14.50
2018,08,01,02,11,14.50
2018,08,01,02,12,14.50
2018,08,01,02,13,14.40
2018,08,01,02,14,14.40
2018,08,01,02,15,14.40
2018,08,01,02,16,14.40
2018,08,01,02,17,14.40
2018,08,01,02,18,14.40
2018,08,01,02,19,14.30
2018,08,01,02,20,14.30
2018,08,01,02,21,14.30
2018,08,01,02,22,14.30
2018,08,01,02,23,14.30
2018,08,01,02,24,14.30
2018,08,01,02,25,14.30
2018,08,01,02,26,14.30
2018,08,01,02,27,14.20
2018,08,01,02,28,14.20
2018,08,01,02,29,14.20
2018,08,01,02,30,14.20
2018,08,01,02,31,14.20
2018,08,01,02,32,14.20
2018,08,01,02,33,14.10
2018,08,01,02,34,14.10
2018,08,01,02,35,14.10
2018,08,01,02,36,14.10
2018,08,01,02,37,14.10
2018,08,01,02,38,14.00
2018,08,01,02,39,14.00
2018,08,01,02,40,13.90
2018,08,01,02,41,13.90
2018,08,01,02,42,13.90
2018,08,01,02,43,13.90
2018,08,01,02,44,13.90
2018,08,01,02,45,13.80
2018,08,01,02,46,13.80
2018,08,01,02,47,13.80
2018,08,01,02,48,13.80
2018,08,01,02,49,13.80
2018,08,01,02,50,13.80
2018,08,01,02,51,13.80
2018,08,01,02,52,13.70
2018,08,01,02,53,13.70
2018,08,01,02,54,13.70
2018,08,01,02,55,13.70
2018,08,01,02,56,13.70
2018,08,01,02,57,13.70
2018,08,01,02,58,13.70
2018,08,01,02,59,13.70
2018,08,01,03,00,13.70
2018,08,01,03,01,13.70
2018,08,01,03,02,13.70
2018,08,01,03,03,13.60
2018,08,01,03,04,13.60
2018,08,01,03,05,13.60
2018,08,01,03,06,13.60
2018,08,01,03,07,13.60
2018,08,01,03,08,13.60
2018,08,01,03,09,13.50
2018,08,01,03,10,13.50
2018,08,01,03,11,13.50
2018,08,01,03,12,13.40
2018,08,01,03,13,13.40
2018,08,01,03,14,13.40
2018,08,01,03,15,13.40
2018,08,01,03,16,13.40
2018,08,01,03,17,13.30
2018,08,01,03,18,13.30
2018,08,01,03,19,13.30
2018,08,01,03,20,13.30
2018,08,01,03,21,13.30
2018,08,01,03,22,13.20
2018,08,01,03,23,13.20
2018,08,01,03,24,13.20
2018,08,01,03,25,13.20
2018,08,01,03,26,13.10
2018,08,01,03,27,13.10
2018,08,01,03,28,13.10
2018,08,01,03,29,13.10
2018,08,01,03,30,13.00
2018,08,01,03,31,13.00
2018,08,01,03,32,13.00
2018,08,01,03,33,13.00
2018,08,01,03,34,12.90
2018,08,01,03,35,12.90
2018,08,01,03,36,12.90
2018,08,01,03,37,12.90
2018,08,01,03,38,12.90
2018,08,01,03,39,12.90
2018,08,01,03,40,12.80
2018,08,01,03,41,12.80
2018,08,01,03,42,12.80
2018,08,01,03,43,12.80
2018,08,01,03,44,12.80
2018,08,01,03,45,12.70
2018,08,01,03,46,12.70
2018,08,01,03,47,12.70
2018,08,01,03,48,12.70
2018,08,01,03,49,12.70
2018,08,01,03,50,12.70
2018,08,01,03,51,12.70
2018,08,01,03,52,12.70
2018,08,01,03,53,12.70
2018,08,01,03,54,12.60
2018,08,01,03,55,12.60
2018,08,01,03,56,12.60
2018,08,01,03,57,12.60
2018,08,01,03,58,12.60
2018,08,01,03,59,12.60
2018,08,01,04,00,12.60
2018,08,01,04,01,12.50
2018,08,01,04,02,12.50
2018,08,01,04,03,12.50
2018,08,01,04,04,12.50
2018,08,01,04,05,12.40
2018,08,01,04,06,12.40
2018,08,01,04,07,12.40
2018,08,01,04,08,12.40
2018,08,01,04,09,12.40
2018,08,01,04,10,12.40
2018,08,01,04,11,12.40
2018,08,01,04,12,12.40
2018,08,01,04,13,12.30
2018,08,01,04,14,12.30
2018,08,01,04,15,12.30
2018,08,01,04,16,12.30
2018,08,01,04,17,12.30
2018,08,01,04,18,12.30
2018,08,01,04,19,12.30
2018,08,01,04,20,12.30
2018,08,01,04,21,12.30
2018,08,01,04,22,12.30
2018,08,01,04,23,12.30
2018,08,01,04,24,12.30
2018,08,01,04,25,12.20
2018,08,01,04,26,12.20
2018,08,01,04,27,12.20
2018,08,01,04,28,12.20
2018,08,01,04,29,12.20
2018,08,01,04,30,12.20
2018,08,01,04,31,12.20
2018,08,01,04,32,12.10
2018,08,01,04,33,12.10
2018,08,01,04,34,12.10
2018,08,01,04,35,12.10
2018,08,01,04,36,12.10
2018,08,01,04,37,12.10
2018,08,01,04,38,12.10
2018,08,01,04,39,12.00
2018,08,01,04,40,12.00
2018,08,01,04,41,12.00
2018,08,01,04,42,12.00
2018,08,01,04,43,11.90
2018,08,01,04,44,11.90
2018,08,01,04,45,11.90
2018,08,01,04,46,11.90
2018,08,01,04,47,11.90
2018,08,01,04,48,11.90
2018,08,01,04,49,11.90
2018,08,01,04,50,11.90
2018,08,01,04,51,11.80
2018,08,01,04,52,11.80
2018,08,01,04,53,11.80
2018,08,01,04,54,11.80
2018,08,01,04,55,11.80
2018,08,01,04,56,11.80
2018,08,01,04,57,11.70
2018,08,01,04,58,11.70
2018,08,01,04,59,11.70
2018,08,01,05,00,11.70
2018,08,01,05,01,11.70
2018,08,01,05,02,11.60
2018,08,01,05,03,11.60
2018,08,01,05,04,11.60
2018,08,01,05,05,11.60
2018,08,01,05,06,11.60
2018,08,01,05,07,11.60
2018,08,01,05,08,11.60
2018,08,01,05,09,11.60
2018,08,01,05,10,11.60
2018,08,01,05,11,11.60
2018,08,01,05,12,11.60
2018,08,01,05,13,11.60
2018,08,01,05,14,11.60
2018,08,01,05,15,11.50
2018,08,01,05,16,11.50
2018,08,01,05,17,11.50
2018,08,01,05,18,11.50
2018,08,01,05,19,11.50
2018,08,01,05,20,11.50
2018,08,01,05,21,11.40
2018,08,01,05,22,11.40
2018,08,01,05,23,11.40
2018,08,01,05,24,11.40
2018,08,01,05,25,11.40
2018,08,01,05,26,11.40
2018,08,01,05,27,11.40
2018,08,01,05,28,11.30
2018,08,01,05,29,11.30
2018,08,01,05,30,11.30
2018,08,01,05,31,11.30
2018,08,01,05,32,11.30
2018,08,01,05,33,11.20
2018,08,01,05,34,11.20
2018,08,01,05,35,11.20
2018,08,01,05,36,11.20
2018,08,01,05,37,11.20
2018,08,01,05,38,11.20
2018,08,01,05,39,11.20
2018,08,01,05,40,11.20
2018,08,01,05,41,11.20
2018,08,01,05,42,11.20
2018,08,01,05,43,11.10
2018,08,01,05,44,11.10
2018,08,01,05,45,11.10
2018,08,01,05,46,11.10
2018,08,01,05,47,11.10
2018,08,01,05,48,11.10
2018,08,01,05,49,11.10
2018,08,01,05,50,11.10
2018,08,01,05,51,11.10
2018,08,01,05,52,11.10
2018,08,01,05,53,11.10
2018,08,01,05,54,11.00
2018,08,01,05,55,11.00
2018,08,01,05,56,11.00
2018,08,01,05,57,11.00
2018,08,01,05,58,11.00
2018,08,01,05,59,11.00
2018,08,01,06,00,10.90
2018,08,01,06,01,10.90
2018,08,01,06,02,10.90
2018,08,01,06,03,10.90
2018,08,01,06,04,10.90
2018,08,01,06,05,10.90
2018,08,01,06,06,10.90
2018,08,01,06,07,10.90
2018,08,01,06,08,10.90
2018,08,01,06,09,10.90
2018,08,01,06,10,10.80
2018,08,01,06,11,10.80
2018,08,01,06,12,10.80
2018,08,01,06,13,10.80
2018,08,01,06,14,10.80
2018,08,01,06,15,10.80
2018,08,01,06,16,10.80
2018,08,01,06,17,10.80
2018,08,01,06,18,10.80
2018,08,01,06,19,10.80
2018,08,01,06,20,10.80
2018,08,01,06,21,10.80
2018,08,01,06,22,10.80
2018,08,01,06,23,10.80
2018,08,01,06,24,10.80
2018,08,01,06,25,10.80
2018,08,01,06,26,10.80
2018,08,01,06,27,10.80
2018,08,01,06,28,10.80
2018,08,01,06,29,10.80
2018,08,01,06,30,10.70
2018,08,01,06,31,10.70
2018,08,01,06,32,10.70
2018,08,01,06,33,10.70
2018,08,01,06,34,10.70
2018,08,01,06,35,10.70
2018,08,01,06,36,10.70
2018,08,01,06,37,10.70
2018,08,01,06,38,10.70
2018,08,01,06,39,10.70
2018,08,01,06,40,10.70
2018,08,01,06,41,10.70
2018,08,01,06,42,10.70
2018,08,01,06,43,10.70
2018,08,01,06,44,10.70
2018,08,01,06,45,10.70
2018,08,01,06,46,10.70
2018,08,01,06,47,10.60
2018,08,01,06,48,10.60
2018,08,01,06,49,10.60
2018,08,01,06,50,10.60
2018,08,01,06,51,10.60
2018,08,01,06,52,10.60
2018,08,01,06,53,10.60
2018,08,01,06,54,10.60
2018,08,01,06,55,10.60
2018,08,01,06,56,10.70
2018,08,01,06,57,10.70
2018,08,01,06,58,10.70
2018,08,01,06,59,10.70
2018,08,01,07,00,10.70
2018,08,01,07,01,10.70
2018,08,01,07,02,10.70
2018,08,01,07,03,10.70
2018,08,01,07,04,10.70
2018,08,01,07,05,10.70
2018,08,01,07,06,10.70
2018,08,01,07,07,10.70
2018,08,01,07,08,10.70
2018,08,01,07,09,10.70
2018,08,01,07,10,10.70
2018,08,01,07,11,10.70
2018,08,01,07,12,10.70
2018,08,01,07,13,10.70
2018,08,01,07,14,10.70
2018,08,01,07,15,10.70
2018,08,01,07,16,10.70
2018,08,01,07,17,10.70
2018,08,01,07,18,10.70
2018,08,01,07,19,10.70
2018,08,01,07,20,10.70
2018,08,01,07,21,10.80
2018,08,01,07,22,10.80
2018,08,01,07,23,10.80
2018,08,01,07,24,10.80
2018,08,01,07,25,10.80
2018,08,01,07,26,10.80
2018,08,01,07,27,10.80
2018,08,01,07,28,10.80
2018,08,01,07,29,10.80
2018,08,01,07,30,10.80
2018,08,01,07,31,10.80
2018,08,01,07,32,10.80
2018,08,01,07,33,10.80
2018,08,01,07,34,10.80
2018,08,01,07,35,10.90
2018,08,01,07,36,10.90
2018,08,01,07,37,10.90
2018,08,01,07,38,10.90
2018,08,01,07,39,10.90
2018,08,01,07,40,10.90
2018,08,01,07,41,10.90
2018,08,01,07,42,10.90
2018,08,01,07,43,10.90
2018,08,01,07,44,10.90
2018,08,01,07,45,11.00
2018,08,01,07,46,10.90
2018,08,01,07,47,11.00
2018,08,01,07,48,11.00
2018,08,01,07,49,11.00
2018,08,01,07,50,11.00
2018,08,01,07,51,11.00
2018,08,01,07,52,11.00
2018,08,01,07,53,11.00
2018,08,01,07,54,11.00
2018,08,01,07,55,11.00
2018,08,01,07,56,11.00
2018,08,01,07,57,11.00
2018,08,01,07,58,11.10
2018,08,01,07,59,11.10
2018,08,01,08,00,11.10
2018,08,01,08,01,11.10
2018,08,01,08,02,11.10
2018,08,01,08,03,11.10
2018,08,01,08,04,11.10
2018,08,01,08,05,11.20
2018,08,01,08,06,11.20
2018,08,01,08,07,11.20
2018,08,01,08,08,11.20
2018,08,01,08,09,11.20
2018,08,01,08,10,11.20
2018,08,01,08,11,11.20
2018,08,01,08,12,11.20
2018,08,01,08,13,11.20
2018,08,01,08,14,11.20
2018,08,01,08,15,11.20
2018,08,01,08,16,11.20
2018,08,01,08,17,11.20
2018,08,01,08,18,11.20
2018,08,01,08,19,11.30
2018,08,01,08,20,11.30
2018,08,01,08,21,11.30
2018,08,01,08,22,11.30
2018,08,01,08,23,11.30
2018,08,01,08,24,11.30
2018,08,01,08,25,11.40
2018,08,01,08,26,11.40
2018,08,01,08,27,11.50
2018,08,01,08,28,11.50
2018,08,01,08,29,11.60
2018,08,01,08,30,11.60
2018,08,01,08,31,11.70
2018,08,01,08,32,11.80
2018,08,01,08,33,11.80
2018,08,01,08,34,11.90
2018,08,01,08,35,11.90
2018,08,01,08,36,12.00
2018,08,01,08,37,12.00
2018,08,01,08,38,12.10
2018,08,01,08,39,12.10
2018,08,01,08,40,12.10
2018,08,01,08,41,12.20
2018,08,01,08,42,12.20
2018,08,01,08,43,12.20
2018,08,01,08,44,12.30
2018,08,01,08,45,12.30
2018,08,01,08,46,12.40
2018,08,01,08,47,12.40
2018,08,01,08,48,12.40
2018,08,01,08,49,12.50
2018,08,01,08,50,12.50
2018,08,01,08,51,12.60
2018,08,01,08,52,12.60
2018,08,01,08,53,12.70
2018,08,01,08,54,12.70
2018,08,01,08,55,12.70
2018,08,01,08,56,12.80
2018,08,01,08,57,12.80
2018,08,01,08,58,12.80
2018,08,01,08,59,12.80
2018,08,01,09,00,12.90
2018,08,01,09,01,12.90
2018,08,01,09,02,12.90
2018,08,01,09,03,13.00
2018,08,01,09,04,13.00
2018,08,01,09,05,13.00
2018,08,01,09,06,13.10
2018,08,01,09,07,13.10
2018,08,01,09,08,13.20
2018,08,01,09,09,13.30
2018,08,01,09,10,13.30
2018,08,01,09,11,13.40
2018,08,01,09,12,13.50
2018,08,01,09,13,13.50
2018,08,01,09,14,13.60
2018,08,01,09,15,13.70
2018,08,01,09,16,13.70
2018,08,01,09,17,13.80
2018,08,01,09,18,13.90
2018,08,01,09,19,13.90
2018,08,01,09,20,14.00
2018,08,01,09,21,14.00
2018,08,01,09,22,14.10
2018,08,01,09,23,14.20
2018,08,01,09,24,14.20
2018,08,01,09,25,14.30
2018,08,01,09,26,14.40
2018,08,01,09,27,14.40
2018,08,01,09,28,14.50
2018,08,01,09,29,14.60
2018,08,01,09,30,14.60
2018,08,01,09,31,14.70
2018,08,01,09,32,14.80
2018,08,01,09,33,14.80
2018,08,01,09,34,14.90
2018,08,01,09,35,15.00
2018,08,01,09,36,15.10
2018,08,01,09,37,15.10
2018,08,01,09,38,15.10
2018,08,01,09,39,15.20
2018,08,01,09,40,15.20
2018,08,01,09,41,15.30
2018,08,01,09,42,15.30
2018,08,01,09,43,15.40
2018,08,01,09,44,15.40
2018,08,01,09,45,15.40
2018,08,01,09,46,15.50
2018,08,01,09,47,15.50
2018,08,01,09,48,15.60
2018,08,01,09,49,15.60
2018,08,01,09,50,15.70
2018,08,01,09,51,15.80
2018,08,01,09,52,15.90
2018,08,01,09,53,16.00
2018,08,01,09,54,16.10
2018,08,01,09,55,16.10
2018,08,01,09,56,16.20
2018,08,01,09,57,16.20
2018,08,01,09,58,16.20
2018,08,01,09,59,16.30
2018,08,01,10,00,16.30
2018,08,01,10,01,16.30
2018,08,01,10,02,16.40
2018,08,01,10,03,16.50
2018,08,01,10,04,16.50
2018,08,01,10,05,16.60
2018,08,01,10,06,16.60
2018,08,01,10,07,16.60
2018,08,01,10,08,16.60
2018,08,01,10,09,16.60
2018,08,01,10,10,16.60
2018,08,01,10,11,16.70
2018,08,01,10,12,16.70
2018,08,01,10,13,16.70
2018,08,01,10,14,16.70
2018,08,01,10,15,16.80
2018,08,01,10,16,16.90
2018,08,01,10,17,16.90
2018,08,01,10,18,17.00
2018,08,01,10,19,17.00
2018,08,01,10,20,17.10
2018,08,01,10,21,17.10
2018,08,01,10,22,17.20
2018,08,01,10,23,17.20
2018,08,01,10,24,17.20
2018,08,01,10,25,17.30
2018,08,01,10,26,17.30
2018,08,01,10,27,17.40
2018,08,01,10,28,17.50
2018,08,01,10,29,17.50
2018,08,01,10,30,17.60
2018,08,01,10,31,17.60
2018,08,01,10,32,17.70
2018,08,01,10,33,17.70
2018,08,01,10,34,17.70
2018,08,01,10,35,17.80
2018,08,01,10,36,17.80
2018,08,01,10,37,17.80
2018,08,01,10,38,17.90
2018,08,01,10,39,18.00
2018,08,01,10,40,18.10
2018,08,01,10,41,18.20
2018,08,01,10,42,18.30
2018,08,01,10,43,18.40
2018,08,01,10,44,18.40
2018,08,01,10,45,18.50
2018,08,01,10,46,18.50
2018,08,01,10,47,18.50
2018,08,01,10,48,18.60
2018,08,01,10,49,18.60
2018,08,01,10,50,18.60
2018,08,01,10,51,18.60
2018,08,01,10,52,18.70
2018,08,01,10,53,18.70
2018,08,01,10,54,18.70
2018,08,01,10,55,18.70
2018,08,01,10,56,18.80
2018,08,01,10,57,18.80
2018,08,01,10,58,18.90
2018,08,01,10,59,18.90
2018,08,01,11,00,18.90
2018,08,01,11,01,19.00
2018,08,01,11,02,19.00
2018,08,01,11,03,19.10
2018,08,01,11,04,19.10
2018,08,01,11,05,19.20
2018,08,01,11,06,19.20
2018,08,01,11,07,19.30
2018,08,01,11,08,19.30
2018,08,01,11,09,19.30
2018,08,01,11,10,19.30
2018,08,01,11,11,19.40
2018,08,01,11,12,19.40
2018,08,01,11,13,19.40
2018,08,01,11,14,19.40
2018,08,01,11,15,19.40
2018,08,01,11,16,19.40
2018,08,01,11,17,19.40
2018,08,01,11,18,19.50
2018,08,01,11,19,19.50
2018,08,01,11,20,19.60
2018,08,01,11,21,19.70
2018,08,01,11,22,19.80
2018,08,01,11,23,19.80
2018,08,01,11,24,19.90
2018,08,01,11,25,20.00
2018,08,01,11,26,20.10
2018,08,01,11,27,20.20
2018,08,01,11,28,20.30
2018,08,01,11,29,20.40
2018,08,01,11,30,20.50
2018,08,01,11,31,20.60
2018,08,01,11,32,20.60
2018,08,01,11,33,20.70
2018,08,01,11,34,20.80
2018,08,01,11,35,20.80
2018,08,01,11,36,20.90
2018,08,01,11,37,21.00
2018,08,01,11,38,21.10
2018,08,01,11,39,21.20
2018,08,01,11,40,21.30
2018,08,01,11,41,21.40
2018,08,01,11,42,21.50
2018,08,01,11,43,21.60
2018,08,01,11,44,21.70
2018,08,01,11,45,21.70
2018,08,01,11,46,21.80
2018,08,01,11,47,21.80
2018,08,01,11,48,21.80
2018,08,01,11,49,21.80
2018,08,01,11,50,21.90
2018,08,01,11,51,21.90
2018,08,01,11,52,21.90
2018,08,01,11,53,21.90
2018,08,01,11,54,21.80
2018,08,01,11,55,21.80
2018,08,01,11,56,21.80
2018,08,01,11,57,21.80
2018,08,01,11,58,21.80
2018,08,01,11,59,21.80
2018,08,01,12,00,21.80
2018,08,01,12,01,21.80
2018,08,01,12,02,21.90
2018,08,01,12,03,22.00
2018,08,01,12,04,22.00
2018,08,01,12,05,22.00
2018,08,01,12,06,22.10
2018,08,01,12,07,22.10
2018,08,01,12,08,22.10
2018,08,01,12,09,22.20
2018,08,01,12,10,22.20
2018,08,01,12,11,22.30
2018,08,01,12,12,22.30
2018,08,01,12,13,22.30
2018,08,01,12,14,22.40
2018,08,01,12,15,22.40
2018,08,01,12,16,22.50
2018,08,01,12,17,22.50
2018,08,01,12,18,22.60
2018,08,01,12,19,22.60
2018,08,01,12,20,22.60
2018,08,01,12,21,22.70
2018,08,01,12,22,22.70
2018,08,01,12,23,22.70
2018,08,01,12,24,22.80
2018,08,01,12,25,22.90
2018,08,01,12,26,22.90
2018,08,01,12,27,23.00
2018,08,01,12,28,23.10
2018,08,01,12,29,23.20
2018,08,01,12,30,23.20
2018,08,01,12,31,23.30
2018,08,01,12,32,23.30
2018,08,01,12,33,23.40
2018,08,01,12,34,23.40
2018,08,01,12,35,23.40
2018,08,01,12,36,23.50
2018,08,01,12,37,23.50
2018,08,01,12,38,23.60
2018,08,01,12,39,23.70
2018,08,01,12,40,23.80
2018,08,01,12,41,23.80
2018,08,01,12,42,23.90
2018,08,01,12,43,24.00
2018,08,01,12,44,24.10
2018,08,01,12,45,24.10
2018,08,01,12,46,24.20
2018,08,01,12,47,24.20
2018,08,01,12,48,24.30
2018,08,01,12,49,24.30
2018,08,01,12,50,24.40
2018,08,01,12,51,24.40
2018,08,01,12,52,24.50
2018,08,01,12,53,24.50
2018,08,01,12,54,24.50
2018,08,01,12,55,24.60
2018,08,01,12,56,24.50
2018,08,01,12,57,24.50
2018,08,01,12,58,24.50
2018,08,01,12,59,24.40
2018,08,01,13,00,24.40
2018,08,01,13,01,24.40
2018,08,01,13,02,24.40
2018,08,01,13,03,24.40
2018,08,01,13,04,24.40
2018,08,01,13,05,24.40
2018,08,01,13,06,24.50
2018,08,01,13,07,24.50
2018,08,01,13,08,24.50
2018,08,01,13,09,24.60
2018,08,01,13,10,24.60
2018,08,01,13,11,24.60
2018,08,01,13,12,24.70
2018,08,01,13,13,24.70
2018,08,01,13,14,24.70
2018,08,01,13,15,24.80
2018,08,01,13,16,24.80
2018,08,01,13,17,24.80
2018,08,01,13,18,24.90
2018,08,01,13,19,24.90
2018,08,01,13,20,25.00
2018,08,01,13,21,25.10
2018,08,01,13,22,25.10
2018,08,01,13,23,25.20
2018,08,01,13,24,25.20
2018,08,01,13,25,25.20
2018,08,01,13,26,25.30
2018,08,01,13,27,25.30
2018,08,01,13,28,25.30
2018,08,01,13,29,25.30
2018,08,01,13,30,25.40
2018,08,01,13,31,25.40
2018,08,01,13,32,25.40
2018,08,01,13,33,25.40
2018,08,01,13,34,25.50
2018,08,01,13,35,25.50
2018,08,01,13,36,25.60
2018,08,01,13,37,25.60
2018,08,01,13,38,25.60
2018,08,01,13,39,25.70
2018,08,01,13,40,25.70
2018,08,01,13,41,25.80
2018,08,01,13,42,25.80
2018,08,01,13,43,25.80
2018,08,01,13,44,25.90
2018,08,01,13,45,26.00
2018,08,01,13,46,26.00
2018,08,01,13,47,26.10
2018,08,01,13,48,26.10
2018,08,01,13,49,26.20
2018,08,01,13,50,26.20
2018,08,01,13,51,26.20
2018,08,01,13,52,26.30
2018,08,01,13,53,26.30
2018,08,01,13,54,26.40
2018,08,01,13,55,26.40
2018,08,01,13,56,26.50
2018,08,01,13,57,26.50
2018,08,01,13,58,26.60
2018,08,01,13,59,26.60
2018,08,01,14,00,26.60
2018,08,01,14,01,26.70
2018,08,01,14,02,26.80
2018,08,01,14,03,26.80
2018,08,01,14,04,26.90
2018,08,01,14,05,27.00
2018,08,01,14,06,27.00
2018,08,01,14,07,27.10
2018,08,01,14,08,27.10
2018,08,01,14,09,27.20
2018,08,01,14,10,27.20
2018,08,01,14,11,27.20
2018,08,01,14,12,27.20
2018,08,01,14,13,27.20
2018,08,01,14,14,27.20
2018,08,01,14,15,27.20
2018,08,01,14,16,27.20
2018,08,01,14,17,27.20
2018,08,01,14,18,27.20
2018,08,01,14,19,27.20
2018,08,01,14,20,27.30
2018,08,01,14,21,27.30
2018,08,01,14,22,27.40
2018,08,01,14,23,27.50
2018,08,01,14,24,27.60
2018,08,01,14,25,27.70
2018,08,01,14,26,27.80
2018,08,01,14,27,27.90
2018,08,01,14,28,27.90
2018,08,01,14,29,28.00
2018,08,01,14,30,28.00
2018,08,01,14,31,28.10
2018,08,01,14,32,28.10
2018,08,01,14,33,28.10
2018,08,01,14,34,28.10
2018,08,01,14,35,28.10
2018,08,01,14,36,28.20
2018,08,01,14,37,28.20
2018,08,01,14,38,28.30
2018,08,01,14,39,28.30
2018,08,01,14,40,28.30
2018,08,01,14,41,28.30
2018,08,01,14,42,28.30
2018,08,01,14,43,28.30
2018,08,01,14,44,28.30
2018,08,01,14,45,28.30
2018,08,01,14,46,28.30
2018,08,01,14,47,28.30
2018,08,01,14,48,28.30
2018,08,01,14,49,28.30
2018,08,01,14,50,28.30
2018,08,01,14,51,28.30
2018,08,01,14,52,28.30
2018,08,01,14,53,28.40
2018,08,01,14,54,28.40
2018,08,01,14,55,28.40
2018,08,01,14,56,28.50
2018,08,01,14,57,28.50
2018,08,01,14,58,28.60
2018,08,01,14,59,28.60
2018,08,01,15,00,28.60
2018,08,01,15,01,28.60
2018,08,01,15,02,28.70
2018,08,01,15,03,28.70
2018,08,01,15,04,28.70
2018,08,01,15,05,28.80
2018,08,01,15,06,28.80
2018,08,01,15,07,28.80
2018,08,01,15,08,28.70
2018,08,01,15,09,28.70
2018,08,01,15,10,28.70
2018,08,01,15,11,28.70
2018,08,01,15,12,28.70
2018,08,01,15,13,28.70
2018,08,01,15,14,28.70
2018,08,01,15,15,28.80
2018,08,01,15,16,28.80
2018,08,01,15,17,28.80
2018,08,01,15,18,28.90
2018,08,01,15,19,28.90
2018,08,01,15,20,28.90
2018,08,01,15,21,28.90
2018,08,01,15,22,28.90
2018,08,01,15,23,28.90
2018,08,01,15,24,28.90
2018,08,01,15,25,28.90
2018,08,01,15,26,28.90
2018,08,01,15,27,28.90
2018,08,01,15,28,28.90
2018,08,01,15,29,28.90
2018,08,01,15,30,28.90
2018,08,01,15,31,29.00
2018,08,01,15,32,29.00
2018,08,01,15,33,29.00
2018,08,01,15,34,29.00
2018,08,01,15,35,28.90
2018,08,01,15,36,28.90
2018,08,01,15,37,28.90
2018,08,01,15,38,28.90
2018,08,01,15,39,29.00
2018,08,01,15,40,29.00
2018,08,01,15,41,29.10
2018,08,01,15,42,29.10
2018,08,01,15,43,29.10
2018,08,01,15,44,29.10
2018,08,01,15,45,29.20
2018,08,01,15,46,29.20
2018,08,01,15,47,29.20
2018,08,01,15,48,29.10
2018,08,01,15,49,29.10
2018,08,01,15,50,29.10
2018,08,01,15,51,29.10
2018,08,01,15,52,29.10
2018,08,01,15,53,29.10
2018,08,01,15,54,29.10
2018,08,01,15,55,29.10
2018,08,01,15,56,29.10
2018,08,01,15,57,29.00
2018,08,01,15,58,29.00
2018,08,01,15,59,28.90
2018,08,01,16,00,28.90
2018,08,01,16,01,28.80
2018,08,01,16,02,28.80
2018,08,01,16,03,28.90
2018,08,01,16,04,28.90
2018,08,01,16,05,29.00
2018,08,01,16,06,29.00
2018,08,01,16,07,29.10
2018,08,01,16,08,29.10
2018,08,01,16,09,29.10
2018,08,01,16,10,29.20
2018,08,01,16,11,29.20
2018,08,01,16,12,29.20
2018,08,01,16,13,29.20
2018,08,01,16,14,29.20
2018,08,01,16,15,29.20
2018,08,01,16,16,29.30
2018,08,01,16,17,29.30
2018,08,01,16,18,29.30
2018,08,01,16,19,29.40
2018,08,01,16,20,29.40
2018,08,01,16,21,29.40
2018,08,01,16,22,29.40
2018,08,01,16,23,29.40
2018,08,01,16,24,29.40
2018,08,01,16,25,29.40
2018,08,01,16,26,29.40
2018,08,01,16,27,29.40
2018,08,01,16,28,29.40
2018,08,01,16,29,29.40
2018,08,01,16,30,29.40
2018,08,01,16,31,29.40
2018,08,01,16,32,29.40
2018,08,01,16,33,29.50
2018,08,01,16,34,29.50
2018,08,01,16,35,29.50
2018,08,01,16,36,29.60
2018,08,01,16,37,29.60
2018,08,01,16,38,29.60
2018,08,01,16,39,29.60
2018,08,01,16,40,29.70
2018,08,01,16,41,29.70
2018,08,01,16,42,29.70
2018,08,01,16,43,29.70
2018,08,01,16,44,29.70
2018,08,01,16,45,29.70
2018,08,01,16,46,29.70
2018,08,01,16,47,29.70
2018,08,01,16,48,29.70
2018,08,01,16,49,29.70
2018,08,01,16,50,29.70
2018,08,01,16,51,29.80
2018,08,01,16,52,29.80
2018,08,01,16,53,29.80
2018,08,01,16,54,29.80
2018,08,01,16,55,29.80
2018,08,01,16,56,29.80
2018,08,01,16,57,29.90
2018,08,01,16,58,29.90
2018,08,01,16,59,29.90
2018,08,01,17,00,29.90
2018,08,01,17,01,29.90
2018,08,01,17,02,29.90
2018,08,01,17,03,29.90
2018,08,01,17,04,29.90
2018,08,01,17,05,29.90
2018,08,01,17,06,29.90
2018,08,01,17,07,29.90
2018,08,01,17,08,29.80
2018,08,01,17,09,29.80
2018,08,01,17,10,29.80
2018,08,01,17,11,29.70
2018,08,01,17,12,29.70
2018,08,01,17,13,29.60
2018,08,01,17,14,29.60
2018,08,01,17,15,29.50
2018,08,01,17,16,29.40
2018,08,01,17,17,29.30
2018,08,01,17,18,29.30
2018,08,01,17,19,29.20